Location: *
(41.7492°S, 135.4150°W)
Time: 23:05:24
(UTC+00:00)

Cosmos 1553 Rocket - Pass Details

Date: 20 September 2021
Orbit: 942 x 1007 km, 82.9° (Epoch: 25 October)

Event Time Altitude Azimuth Distance (km) Brightness Sun altitude
Rises 13:15:46 0° 193° (SSW) 3,657 7.1 -18.9°
Reaches altitude 10° 13:18:20 10° 197° (SSW) 2,700 6.3 -18.4°
Maximum altitude 13:24:17 53° 271° (W) 1,155 4.0 -17.3°
Drops below altitude 10° 13:30:10 10° 346° (NNW) 2,663 6.0 -16.3°
Sets 13:32:42 0° 351° (N) 3,603 6.7 -15.8°
